Home > Weather > Victorville > Past weeks

Flag for U.S.A. Weather for the Past 2 Weeks in Victorville, California, U.S.A.

Now
50 °F

Clear.


Feels Like: 50 °F
Forecast: 29 / 60 °F
Wind: No wind

Location: George Air Force Base / Victorvi

Current Time: Feb 5, 2016 at 6:58:59 PM

Latest Report: Feb 5, 2016 at 5:55 PM


Visibility: 10 mi

Pressure: 30.40 "Hg (27.50 "Hg at 830m altitude)

Humidity: 28%

Dew point: 18 °F

Location of VictorvilleLocation

Historic Weather in Victorville — Graph

°F

Victorville Temperature Yesterday

Maximum temperature yesterday: 55 °F (at 3:15 PM)
Minimum temperature yesterday: 23 °F (at 5:15 AM)
Average temperature yesterday: 38 °F

High & Low Weather Summary for the Past Weeks

 TemperatureHumidityPressure
High73 °F (Jan 29, 12:55 PM)93% (Jan 31, 4:55 PM)30.48 "Hg (Jan 31, 4:55 PM)
Low23 °F (Feb 2, 2:15 AM)15% (Jan 26, 3:15 PM)29.49 "Hg (Jan 31, 1:55 PM)
Average44 °F53%30.15 "Hg
* Reported Jan 21 5:15 PM — Feb 5 5:15 PM, Victorville, Weather by CustomWeather, © 2016

Note: Actual official high and low records may vary slightly from our data, if they occured in-between our weather recording intervals... More about our weather records

Advertising

Victorville Weather History for the Previous 24 Hours

 ConditionsComfort  
Time TempWeatherWind HumidityBarometerVisibility
5:15 PM
Fri, Feb 5
54 °FSunny.No wind24%30.39 "Hg10 mi
4:35 PM57 °FSunny.12 mph21%30.39 "Hg10 mi
4:15 PM57 °FSunny.10 mph20%30.39 "Hg10 mi
3:55 PM57 °FSunny.13 mph17%30.39 "Hg10 mi
3:15 PM59 °FSunny.13 mph16%30.39 "Hg10 mi
2:35 PM59 °FSunny.14 mph16%30.41 "Hg10 mi
2:15 PM59 °FSunny.13 mph16%30.41 "Hg10 mi
1:55 PM59 °FSunny.15 mph17%30.41 "Hg10 mi
1:35 PM59 °FSunny.14 mph17%30.42 "Hg10 mi
1:15 PM59 °FSunny.14 mph18%30.42 "Hg10 mi
12:55 PM57 °FSunny.12 mph20%30.42 "Hg10 mi
12:35 PM57 °FSunny.13 mph21%30.43 "Hg10 mi
12:15 PM57 °FSunny.14 mph20%30.44 "Hg10 mi
11:55 AM57 °FSunny.12 mph21%30.45 "Hg10 mi
11:15 AM55 °FSunny.15 mph23%30.46 "Hg10 mi
10:55 AM54 °FSunny.13 mph26%30.47 "Hg10 mi
10:35 AM52 °FSunny.No wind28%30.48 "Hg10 mi
10:15 AM48 °FSunny.No wind34%30.48 "Hg10 mi
9:55 AM46 °FSunny.No wind34%30.48 "Hg10 mi
9:35 AM45 °FSunny.No wind39%30.47 "Hg10 mi
9:15 AM45 °FSunny.No wind39%30.47 "Hg10 mi
8:55 AM41 °FSunny.No wind45%30.47 "Hg10 mi
8:35 AM39 °FChilly.No wind48%30.46 "Hg10 mi
8:15 AM37 °FChilly.No wind52%30.46 "Hg10 mi
7:55 AM36 °FChilly.No wind56%30.46 "Hg10 mi
7:35 AM32 °FChilly.No wind60%30.46 "Hg10 mi
7:15 AM28 °FChilly.No wind64%30.45 "Hg10 mi
6:55 AM30 °FChilly.No wind59%30.45 "Hg10 mi
6:35 AM30 °FChilly.No wind59%30.45 "Hg10 mi
6:15 AM28 °FChilly.No wind64%30.44 "Hg10 mi
5:55 AM27 °FChilly.No wind69%30.44 "Hg10 mi
5:35 AM28 °FChilly.No wind64%30.43 "Hg10 mi
5:15 AM30 °FChilly.No wind59%30.42 "Hg10 mi
4:55 AM30 °FChilly.No wind59%30.42 "Hg10 mi
4:35 AM32 °FChilly.No wind55%30.42 "Hg10 mi
4:15 AM30 °FChilly.No wind59%30.42 "Hg10 mi
3:55 AM32 °FChilly.No wind55%30.42 "Hg10 mi
3:35 AM34 °FChilly.No wind51%30.41 "Hg10 mi
3:15 AM30 °FChilly.No wind59%30.42 "Hg10 mi
2:55 AM32 °FChilly.No wind55%30.41 "Hg10 mi
2:35 AM30 °FChilly.No wind55%30.41 "Hg10 mi
2:15 AM37 °FChilly.No wind41%30.41 "Hg10 mi
1:55 AM36 °FChilly.No wind44%30.41 "Hg10 mi
1:35 AM36 °FChilly.No wind44%30.41 "Hg10 mi
1:15 AM34 °FChilly.No wind48%30.41 "Hg10 mi
12:55 AM32 °FChilly.No wind51%30.41 "Hg10 mi
12:35 AM32 °FChilly.No wind51%30.41 "Hg10 mi
12:15 AM34 °FChilly.No wind48%30.41 "Hg10 mi
11:55 PM
Thu, Feb 4
32 °FChilly.No wind51%30.41 "Hg10 mi
11:35 PM34 °FChilly.No wind48%30.42 "Hg10 mi
11:15 PM34 °FChilly.No wind48%30.42 "Hg10 mi
10:55 PM34 °FChilly.No wind48%30.42 "Hg10 mi
10:35 PM34 °FChilly.No wind48%30.42 "Hg10 mi
10:15 PM36 °FClear.No wind44%30.41 "Hg10 mi
9:35 PM36 °FClear.No wind41%30.41 "Hg10 mi
9:15 PM36 °FClear.No wind41%30.40 "Hg10 mi
8:55 PM36 °FClear.No wind38%30.39 "Hg10 mi
8:35 PM36 °FChilly.No wind38%30.38 "Hg10 mi
7:55 PM39 °FClear.No wind33%30.37 "Hg10 mi
7:35 PM45 °FClear.No wind27%30.37 "Hg10 mi
7:15 PM45 °FClear.No wind27%30.36 "Hg10 mi
6:55 PM45 °FClear.No wind27%30.35 "Hg10 mi
6:15 PM45 °FClear.No wind27%30.34 "Hg10 mi
Weather by CustomWeather, © 2016

See weather overviewHow to use our weather pages